Location: Archemont
(49.1579°N, 1.7598°E)
Time: 12:55:12
(UTC+00:00)

Meteor 2-12 Rocket - Pass Details

Date: 03 February 2023
Orbit: 935 x 958 km, 82.5° (Epoch: 26 March)

Event Time Altitude Azimuth Distance (km) Brightness Sun altitude
Rises 18:16:36 0° 350° (N) 3,624 7.5 -13.9°
Reaches altitude 10° 18:19:07 10° 352° (N) 2,672 6.8 -14.3°
Maximum altitude 18:25:14 78° 79° (E) 965 4.3 -15.3°
Drops below altitude 10° 18:31:17 10° 166° (SSE) 2,642 6.7 -16.3°
Sets 18:33:45 0° 168° (SSE) 3,580 7.4 -16.7°
